QPF
0.01 0.01 0.01 0.01 0.01 0.01 0.01 0.01 0.01 0.01 0.01 0.01 0.01 0.01 0.01 0.00 0.00 0.00 0.00 0.00 0.00 0.00 0.00 0.00 0.00 0.00 0.01 0.01 0.01 0.02 0.02 0.02 0.02 0.02 0.02 0.01 0.01 0.01 0.01 0.01 0.01 0.01 0.02 0.04
0.01 0.01 0.01 0.01 0.01 0.01 0.01 0.01 0.01 0.01 0.01 0.01 0.01 0.00 0.00 0.00 0.00 0.00 0.00 0.00 0.00 0.00 0.00 0.00 0.00 0.00 0.01 0.01 0.01 0.02 0.02 0.02 0.02 0.02 0.01 0.01 0.01 0.01 0.01 0.01 0.01 0.01 0.02 0.02
0.01 0.00 0.01 0.01 0.00 0.00 0.00 0.01 0.01 0.01 0.01 0.01 0.01 0.01 0.01 0.00 0.00 0.00 0.00 0.00 0.00 0.00 0.00 0.01 0.01 0.01 0.01 0.01 0.01 0.01 0.02 0.02 0.02 0.01 0.01 0.01 0.01 0.01 0.01 0.01 0.01 0.01 0.02 0.02
0.02 0.01 0.01 0.01 0.01 0.00 0.00 0.01 0.01 0.01 0.01 0.01 0.01 0.01 0.01 0.01 0.00 0.00 0.00 0.00 0.00 0.01 0.01 0.00 0.01 0.01 0.01 0.01 0.01 0.01 0.01 0.01 0.01 0.01 0.01 0.01 0.01 0.01 0.01 0.01 0.01 0.01 0.01 0.02
0.03 0.02 0.01 0.01 0.00 0.01 0.01 0.01 0.01 0.01 0.01 0.01 0.01 0.01 0.01 0.00 0.00 0.00 0.01 0.01 0.01 0.01 0.01 0.01 0.01 0.01 0.01 0.01 0.01 0.01 0.01 0.01 0.01 0.01 0.01 0.01 0.01 0.01 0.01 0.01 0.01 0.01 0.01 0.01
0.03 0.02 0.01 0.01 0.00 0.01 0.01 0.01 0.01 0.01 0.01 0.01 0.01 0.01 0.01 0.00 0.01 0.01 0.01 0.01 0.01 0.01 0.01 0.01 0.01 0.01 0.01 0.01 0.01 0.01 0.01 0.01 0.01 0.01 0.01 0.01 0.01 0.01 0.01 0.01 0.01 0.01 0.01 0.01
0.03 0.02 0.01 0.00 0.00 0.00 0.01 0.01 0.01 0.01 0.01 0.01 0.01 0.01 0.01 0.01 0.01 0.01 0.01 0.01 0.01 0.01 0.01 0.01 0.01 0.01 0.01 0.01 0.01 0.01 0.01 0.01 0.01 0.01 0.01 0.01 0.01 0.01 0.01 0.01 0.01 0.01 0.01 0.01
0.02 0.02 0.01 0.00 0.00 0.00 0.01 0.01 0.01 0.01 0.01 0.01 0.01 0.01 0.01 0.01 0.01 0.01 0.01 0.01 0.01 0.01 0.01 0.01 0.01 0.01 0.01 0.01 0.01 0.01 0.01 0.01 0.01 0.01 0.01 0.01 0.01 0.01 0.01 0.01 0.01 0.01 0.01 0.01
0.01 0.01 0.01 0.01 0.01 0.01 0.01 0.01 0.01 0.01 0.00 0.00 0.01 0.01 0.01 0.01 0.01 0.01 0.01 0.01 0.01 0.01 0.01 0.01 0.01 0.01 0.01 0.01 0.01 0.01 0.01 0.01 0.01 0.01 0.01 0.01 0.01 0.01 0.01 0.01 0.01 0.01 0.00 0.00
0.01 0.01 0.01 0.01 0.01 0.01 0.01 0.01 0.01 0.01 0.01 0.01 0.01 0.01 0.01 0.01 0.01 0.01 0.01 0.01 0.01 0.01 0.01 0.01 0.01 0.01 0.01 0.01 0.01 0.01 0.01 0.01 0.01 0.01 0.01 0.01 0.01 0.01 0.01 0.01 0.01 0.01 0.01 0.01
0.01 0.01 0.01 0.01 0.01 0.01 0.01 0.01 0.01 0.00 0.00 0.01 0.01 0.01 0.01 0.01 0.01 0.01 0.01 0.01 0.01 0.01 0.01 0.01 0.00 0.00 0.00 0.01 0.01 0.01 0.01 0.01 0.01 0.01 0.01 0.01 0.01 0.01 0.01 0.01 0.01 0.01 0.01 0.01
0.01 0.01 0.01 0.01 0.01 0.01 0.01 0.01 0.01 0.01 0.01 0.01 0.01 0.01 0.01 0.01 0.01 0.01 0.01 0.01 0.01 0.01 0.01 0.01 0.00 0.00 0.00 0.00 0.01 0.01 0.01 0.01 0.01 0.01 0.01 0.01 0.01 0.01 0.00 0.01 0.01 0.01 0.01 0.02
0.01 0.01 0.01 0.01 0.01 0.01 0.01 0.01 0.01 0.01 0.01 0.01 0.01 0.01 0.01 0.01 0.01 0.01 0.01 0.01 0.01 0.01 0.01 0.01 0.01 0.01 0.00 0.00 0.01 0.01 0.01 0.01 0.01 0.01 0.01 0.00 0.01 0.01 0.00 0.00 0.00 0.00 0.01 0.01
0.01 0.01 0.01 0.01 0.01 0.01 0.01 0.01 0.01 0.01 0.01 0.01 0.01 0.00 0.01 0.01 0.01 0.01 0.01 0.01 0.01 0.01 0.01 0.01 0.01 0.01 0.01 0.01 0.01 0.01 0.01 0.01 0.01 0.01 0.01 0.01 0.01 0.00 0.00 0.00 0.00 0.00 0.00 0.01
0.00 0.00 0.00 0.00 0.00 0.00 0.00 0.00 0.00 0.00 0.00 0.00 0.00 0.00 0.01 0.01 0.01 0.01 0.01 0.01 0.01 0.01 0.01 0.01 0.01 0.01 0.01 0.01 0.01 0.01 0.01 0.01 0.01 0.01 0.01 0.00 0.00 0.00 0.00 0.00 0.00 0.00 0.00 0.00
0.00 0.00 0.00 0.00 0.00 0.00 0.00 0.00 0.00 0.00 0.00 0.00 0.00 0.00 0.00 0.01 0.01 0.01 0.00 0.01 0.01 0.01 0.01 0.01 0.01 0.01 0.01 0.01 0.01 0.01 0.01 0.01 0.01 0.01 0.01 0.01 0.01 0.00 0.00 0.00 0.00 0.00 0.00 0.00
0.00 0.00 0.00 0.00 0.00 0.00 0.00 0.00 0.00 0.00 0.00 0.00 0.00 0.00 0.00 0.00 0.00 0.00 0.00 0.00 0.01 0.01 0.01 0.01 0.01 0.01 0.01 0.01 0.01 0.01 0.01 0.01 0.01 0.01 0.01 0.01 0.01 0.01 0.01 0.01 0.01 0.00 0.00 0.00
0.00 0.00 0.00 0.00 0.00 0.00 0.00 0.00 0.00 0.00 0.00 0.00 0.00 0.00 0.00 0.00 0.00 0.00 0.00 0.00 0.00 0.00 0.00 0.01 0.01 0.01 0.01 0.01 0.01 0.01 0.01 0.01 0.01 0.01 0.01 0.01 0.01 0.01 0.01 0.01 0.01 0.01 0.01 0.01
0.00 0.00 0.00 0.00 0.00 0.00 0.00 0.00 0.00 0.00 0.00 0.00 0.00 0.00 0.00 0.00 0.00 0.00 0.00 0.00 0.00 0.00 0.00 0.00 0.00 0.00 0.00 0.01 0.01 0.01 0.01 0.01 0.01 0.01 0.01 0.01 0.01 0.01 0.01 0.01 0.01 0.01 0.01 0.01
0.00 0.00 0.00 0.00 0.00 0.00 0.00 0.00 0.00 0.00 0.00 0.00 0.00 0.00 0.00 0.00 0.00 0.00 0.00 0.00 0.00 0.01 0.01 0.01 0.00 0.00 0.00 0.00 0.01 0.01 0.01 0.01 0.01 0.01 0.01 0.02 0.02 0.02 0.02 0.01 0.01 0.01 0.01 0.01
0.00 0.00 0.00 0.00 0.00 0.00 0.00 0.00 0.00 0.00 0.00 0.00 0.00 0.00 0.00 0.00 0.00 0.00 0.00 0.00 0.00 0.00 0.00 0.00 0.01 0.01 0.01 0.01 0.01 0.01 0.01 0.01 0.01 0.01 0.02 0.02 0.02 0.02 0.02 0.02 0.02 0.02 0.02 0.02
0.00 0.00 0.00 0.00 0.00 0.00 0.00 0.00 0.00 0.00 0.00 0.00 0.00 0.00 0.00 0.00 0.00 0.00 0.00 0.00 0.01 0.01 0.01 0.01 0.01 0.01 0.01 0.01 0.01 0.01 0.01 0.01 0.01 0.01 0.01 0.01 0.01 0.01 0.01 0.01 0.01 0.01 0.01 0.01
0.00 0.00 0.00 0.00 0.00 0.00 0.00 0.00 0.00 0.00 0.00 0.00 0.00 0.01 0.00 0.00 0.00 0.00 0.00 0.01 0.01 0.01 0.01 0.01 0.01 0.01 0.01 0.01 0.01 0.01 0.01 0.01 0.01 0.01 0.01 0.01 0.01 0.01 0.01 0.01 0.01 0.01 0.01 0.01
0.00 0.00 0.00 0.00 0.00 0.00 0.00 0.00 0.00 0.00 0.00 0.00 0.00 0.00 0.00 0.00 0.00 0.00 0.01 0.01 0.01 0.01 0.01 0.01 0.01 0.01 0.01 0.01 0.01 0.01 0.01 0.01 0.01 0.01 0.01 0.01 0.01 0.01 0.01 0.01 0.01 0.01 0.01 0.01
0.00 0.00 0.00 0.00 0.00 0.00 0.00 0.00 0.00 0.00 0.00 0.00 0.00 0.00 0.00 0.00 0.01 0.00 0.00 0.00 0.00 0.01 0.00 0.00 0.01 0.01 0.01 0.01 0.01 0.01 0.01 0.01 0.01 0.01 0.01 0.01 0.01 0.01 0.01 0.01 0.01 0.01 0.01 0.01
0.00 0.00 0.00 0.00 0.00 0.00 0.00 0.00 0.00 0.00 0.00 0.00 0.00 0.00 0.00 0.00 0.00 0.00 0.00 0.00 0.00 0.00 0.00 0.00 0.00 0.00 0.01 0.01 0.01 0.01 0.01 0.01 0.01 0.01 0.01 0.01 0.01 0.01 0.01 0.01 0.01 0.01 0.01 0.01
0.01 0.01 0.00 0.00 0.00 0.00 0.00 0.00 0.00 0.00 0.00 0.00 0.00 0.00 0.00 0.00 0.00 0.00 0.00 0.00 0.00 0.00 0.00 0.00 0.00 0.00 0.01 0.01 0.01 0.01 0.01 0.01 0.01 0.01 0.01 0.01 0.01 0.01 0.01 0.01 0.01 0.01 0.01 0.01
MSLP
1028.90 1028.92 1028.85 1028.71 1028.54 1028.38 1028.26 1028.19 1028.20 1028.28 1028.42 1028.60 1028.78 1028.95 1029.08 1029.15 1029.16 1029.11 1029.02 1028.92 1028.81 1028.74 1028.71 1028.72 1028.79 1028.88 1028.99 1029.09 1029.15 1029.15 1029.08 1028.95 1028.75 1028.49 1028.21 1027.91 1027.61 1027.32 1027.04 1026.75 1026.46 1026.14 1025.79 1025.41
1029.46 1029.34 1029.08 1028.74 1028.36 1028.01 1027.73 1027.57 1027.54 1027.64 1027.86 1028.16 1028.49 1028.82 1029.09 1029.29 1029.39 1029.39 1029.31 1029.18 1029.03 1028.88 1028.77 1028.71 1028.71 1028.75 1028.81 1028.87 1028.90 1028.88 1028.80 1028.65 1028.44 1028.18 1027.89 1027.59 1027.29 1027.00 1026.72 1026.44 1026.15 1025.83 1025.49 1025.11
1029.74 1029.48 1029.06 1028.55 1028.02 1027.53 1027.15 1026.93 1026.89 1027.04 1027.34 1027.76 1028.24 1028.72 1029.14 1029.45 1029.65 1029.71 1029.66 1029.52 1029.33 1029.13 1028.95 1028.81 1028.73 1028.70 1028.69 1028.69 1028.67 1028.61 1028.49 1028.32 1028.09 1027.82 1027.52 1027.22 1026.92 1026.63 1026.35 1026.08 1025.79 1025.48 1025.14 1024.77
1029.60 1029.24 1028.74 1028.15 1027.55 1027.01 1026.62 1026.41 1026.41 1026.63 1027.03 1027.57 1028.17 1028.78 1029.32 1029.74 1030.01 1030.13 1030.10 1029.96 1029.74 1029.49 1029.25 1029.04 1028.87 1028.75 1028.66 1028.59 1028.49 1028.37 1028.20 1027.99 1027.72 1027.43 1027.11 1026.80 1026.49 1026.20 1025.93 1025.65 1025.37 1025.07 1024.73 1024.36
1029.02 1028.64 1028.14 1027.57 1027.02 1026.55 1026.23 1026.11 1026.22 1026.54 1027.04 1027.68 1028.38 1029.07 1029.69 1030.17 1030.49 1030.64 1030.62 1030.47 1030.22 1029.93 1029.63 1029.35 1029.10 1028.89 1028.72 1028.55 1028.37 1028.17 1027.93 1027.65 1027.34 1027.01 1026.67 1026.33 1026.02 1025.72 1025.43 1025.16 1024.87 1024.56 1024.23 1023.86
1028.04 1027.72 1027.32 1026.90 1026.50 1026.21 1026.06 1026.10 1026.35 1026.80 1027.40 1028.12 1028.87 1029.60 1030.24 1030.73 1031.05 1031.19 1031.16 1030.98 1030.71 1030.38 1030.02 1029.68 1029.36 1029.07 1028.81 1028.55 1028.28 1027.99 1027.67 1027.32 1026.95 1026.56 1026.18 1025.82 1025.47 1025.15 1024.85 1024.57 1024.27 1023.96 1023.63 1023.26
1026.76 1026.60 1026.41 1026.22 1026.08 1026.04 1026.14 1026.39 1026.81 1027.38 1028.06 1028.82 1029.58 1030.29 1030.88 1031.33 1031.60 1031.70 1031.63 1031.42 1031.11 1030.75 1030.35 1029.96 1029.59 1029.23 1028.88 1028.54 1028.18 1027.80 1027.40 1026.97 1026.52 1026.08 1025.64 1025.24 1024.86 1024.51 1024.19 1023.88 1023.58 1023.26 1022.93 1022.57
1025.40 1025.46 1025.54 1025.66 1025.83 1026.09 1026.46 1026.93 1027.52 1028.19 1028.93 1029.68 1030.39 1031.02 1031.53 1031.88 1032.06 1032.08 1031.95 1031.70 1031.36 1030.96 1030.54 1030.12 1029.70 1029.29 1028.88 1028.46 1028.02 1027.56 1027.07 1026.56 1026.04 1025.53 1025.04 1024.58 1024.16 1023.78 1023.43 1023.11 1022.79 1022.47 1022.14 1021.79
1024.16 1024.49 1024.87 1025.31 1025.81 1026.37 1026.99 1027.66 1028.38 1029.12 1029.86 1030.55 1031.17 1031.68 1032.06 1032.28 1032.35 1032.28 1032.08 1031.78 1031.41 1031.00 1030.56 1030.12 1029.67 1029.22 1028.76 1028.27 1027.76 1027.22 1026.65 1026.06 1025.47 1024.89 1024.34 1023.83 1023.37 1022.95 1022.58 1022.24 1021.92 1021.61 1021.29 1020.96
1023.27 1023.87 1024.55 1025.28 1026.06 1026.86 1027.68 1028.49 1029.29 1030.04 1030.74 1031.34 1031.84 1032.20 1032.42 1032.51 1032.46 1032.29 1032.02 1031.68 1031.28 1030.85 1030.40 1029.95 1029.48 1029.00 1028.49 1027.95 1027.36 1026.75 1026.10 1025.44 1024.78 1024.14 1023.53 1022.98 1022.48 1022.04 1021.65 1021.30 1020.99 1020.68 1020.38 1020.08
1022.93 1023.76 1024.66 1025.61 1026.58 1027.55 1028.48 1029.36 1030.17 1030.88 1031.49 1031.98 1032.33 1032.54 1032.62 1032.58 1032.42 1032.16 1031.83 1031.45 1031.03 1030.59 1030.13 1029.65 1029.16 1028.64 1028.08 1027.47 1026.82 1026.13 1025.41 1024.68 1023.96 1023.26 1022.61 1022.01 1021.49 1021.03 1020.64 1020.30 1019.99 1019.71 1019.44 1019.18
1023.22 1024.20 1025.24 1026.31 1027.37 1028.39 1029.34 1030.21 1030.96 1031.60 1032.10 1032.46 1032.67 1032.76 1032.71 1032.56 1032.31 1031.99 1031.61 1031.20 1030.75 1030.28 1029.80 1029.29 1028.75 1028.17 1027.55 1026.87 1026.14 1025.37 1024.58 1023.78 1022.99 1022.25 1021.56 1020.94 1020.40 1019.94 1019.56 1019.23 1018.95 1018.71 1018.48 1018.25
1024.13 1025.16 1026.23 1027.31 1028.35 1029.33 1030.22 1031.00 1031.67 1032.19 1032.58 1032.83 1032.93 1032.92 1032.78 1032.56 1032.25 1031.88 1031.46 1031.01 1030.53 1030.02 1029.48 1028.92 1028.31 1027.64 1026.93 1026.16 1025.34 1024.49 1023.62 1022.75 1021.91 1021.12 1020.41 1019.78 1019.24 1018.79 1018.41 1018.12 1017.87 1017.66 1017.48 1017.30
1025.51 1026.51 1027.52 1028.51 1029.44 1030.30 1031.08 1031.74 1032.28 1032.70 1032.98 1033.14 1033.17 1033.09 1032.91 1032.64 1032.30 1031.89 1031.44 1030.94 1030.41 1029.84 1029.23 1028.57 1027.86 1027.09 1026.27 1025.39 1024.47 1023.53 1022.58 1021.65 1020.76 1019.94 1019.21 1018.57 1018.03 1017.59 1017.24 1016.97 1016.76 1016.59 1016.45 1016.32
1027.18 1028.07 1028.94 1029.77 1030.54 1031.24 1031.86 1032.39 1032.82 1033.14 1033.35 1033.45 1033.44 1033.33 1033.13 1032.84 1032.48 1032.04 1031.55 1031.00 1030.39 1029.73 1029.02 1028.25 1027.42 1026.53 1025.59 1024.60 1023.57 1022.54 1021.52 1020.54 1019.61 1018.76 1018.01 1017.37 1016.84 1016.42 1016.09 1015.84 1015.65 1015.52 1015.41 1015.31
1028.91 1029.64 1030.32 1030.96 1031.55 1032.07 1032.54 1032.95 1033.27 1033.52 1033.69 1033.76 1033.74 1033.63 1033.42 1033.12 1032.74 1032.27 1031.72 1031.11 1030.41 1029.66 1028.83 1027.94 1026.98 1025.97 1024.92 1023.82 1022.71 1021.61 1020.53 1019.50 1018.54 1017.68 1016.92 1016.28 1015.75 1015.33 1015.00 1014.76 1014.59 1014.47 1014.37 1014.30
1030.49 1031.04 1031.52 1031.97 1032.37 1032.74 1033.08 1033.38 1033.64 1033.84 1033.99 1034.05 1034.03 1033.92 1033.71 1033.40 1032.99 1032.48 1031.88 1031.18 1030.40 1029.54 1028.61 1027.61 1026.55 1025.44 1024.29 1023.12 1021.95 1020.80 1019.68 1018.63 1017.65 1016.78 1016.01 1015.36 1014.82 1014.39 1014.06 1013.81 1013.63 1013.50 1013.40 1013.33
1031.79 1032.15 1032.45 1032.72 1032.97 1033.21 1033.45 1033.68 1033.89 1034.07 1034.20 1034.27 1034.24 1034.13 1033.90 1033.57 1033.12 1032.56 1031.89 1031.13 1030.27 1029.33 1028.31 1027.24 1026.11 1024.94 1023.75 1022.55 1021.35 1020.19 1019.07 1018.01 1017.03 1016.15 1015.38 1014.71 1014.15 1013.70 1013.34 1013.05 1012.84 1012.68 1012.56 1012.47
1032.73 1032.92 1033.06 1033.19 1033.32 1033.48 1033.65 1033.83 1034.01 1034.17 1034.29 1034.34 1034.30 1034.16 1033.91 1033.53 1033.04 1032.42 1031.70 1030.88 1029.97 1028.98 1027.93 1026.83 1025.69 1024.52 1023.34 1022.16 1020.99 1019.85 1018.75 1017.72 1016.75 1015.87 1015.08 1014.40 1013.80 1013.30 1012.89 1012.56 1012.29 1012.08 1011.92 1011.80
1033.33 1033.37 1033.39 1033.41 1033.47 1033.56 1033.69 1033.84 1034.00 1034.13 1034.22 1034.24 1034.17 1033.98 1033.68 1033.25 1032.70 1032.04 1031.28 1030.43 1029.50 1028.52 1027.48 1026.41 1025.32 1024.21 1023.10 1021.99 1020.89 1019.81 1018.77 1017.77 1016.83 1015.95 1015.15 1014.43 1013.80 1013.24 1012.77 1012.37 1012.04 1011.77 1011.55 1011.39
1033.64 1033.57 1033.50 1033.46 1033.46 1033.52 1033.61 1033.73 1033.86 1033.96 1034.00 1033.97 1033.84 1033.59 1033.22 1032.74 1032.15 1031.45 1030.68 1029.83 1028.93 1028.00 1027.04 1026.05 1025.06 1024.07 1023.06 1022.06 1021.06 1020.08 1019.10 1018.16 1017.25 1016.38 1015.56 1014.81 1014.12 1013.51 1012.97 1012.50 1012.10 1011.77 1011.50 1011.29
1033.77 1033.61 1033.47 1033.39 1033.36 1033.39 1033.45 1033.54 1033.62 1033.67 1033.65 1033.55 1033.35 1033.03 1032.60 1032.07 1031.45 1030.75 1029.99 1029.18 1028.35 1027.51 1026.66 1025.81 1024.95 1024.10 1023.24 1022.36 1021.49 1020.60 1019.71 1018.82 1017.94 1017.08 1016.26 1015.48 1014.75 1014.08 1013.47 1012.94 1012.48 1012.09 1011.78 1011.53
1033.80 1033.57 1033.39 1033.27 1033.22 1033.22 1033.26 1033.31 1033.33 1033.32 1033.23 1033.05 1032.77 1032.39 1031.91 1031.35 1030.71 1030.03 1029.32 1028.59 1027.86 1027.13 1026.42 1025.71 1025.01 1024.31 1023.59 1022.86 1022.10 1021.32 1020.50 1019.67 1018.83 1017.99 1017.16 1016.35 1015.59 1014.88 1014.23 1013.65 1013.15 1012.72 1012.36 1012.09
1033.78 1033.51 1033.30 1033.17 1033.09 1033.07 1033.07 1033.07 1033.03 1032.94 1032.78 1032.53 1032.18 1031.75 1031.24 1030.66 1030.05 1029.41 1028.76 1028.13 1027.51 1026.92 1026.34 1025.79 1025.23 1024.67 1024.09 1023.48 1022.82 1022.13 1021.39 1020.61 1019.81 1018.98 1018.16 1017.36 1016.58 1015.85 1015.18 1014.57 1014.04 1013.59 1013.21 1012.91
1033.75 1033.46 1033.24 1033.09 1033.00 1032.94 1032.89 1032.84 1032.74 1032.58 1032.35 1032.03 1031.64 1031.18 1030.66 1030.10 1029.52 1028.95 1028.39 1027.85 1027.35 1026.88 1026.43 1026.00 1025.57 1025.12 1024.65 1024.13 1023.56 1022.94 1022.27 1021.54 1020.78 1019.99 1019.19 1018.40 1017.63 1016.91 1016.24 1015.63 1015.09 1014.62 1014.24 1013.93
1033.73 1033.43 1033.21 1033.05 1032.93 1032.84 1032.74 1032.63 1032.46 1032.24 1031.96 1031.60 1031.18 1030.71 1030.21 1029.68 1029.16 1028.66 1028.19 1027.75 1027.35 1026.98 1026.64 1026.30 1025.96 1025.60 1025.20 1024.75 1024.25 1023.68 1023.06 1022.38 1021.67 1020.92 1020.16 1019.41 1018.68 1017.98 1017.33 1016.73 1016.20 1015.74 1015.35 1015.04
1033.73 1033.44 1033.21 1033.03 1032.88 1032.75 1032.61 1032.43 1032.21 1031.94 1031.61 1031.23 1030.80 1030.35 1029.88 1029.41 1028.95 1028.53 1028.13 1027.78 1027.46 1027.17 1026.90 1026.62 1026.34 1026.03 1025.67 1025.27 1024.81 1024.29 1023.71 1023.09 1022.43 1021.74 1021.04 1020.34 1019.65 1019.00 1018.38 1017.81 1017.30 1016.84 1016.45 1016.13
Thickness
5376 5375 5369 5367 5363 5353 5349 5351 5350 5355 5345 5352 5343 5335 5328 5321 5316 5315 5314 5311 5308 5305 5302 5300 5299 5299 5298 5298 5299 5300 5301 5303 5304 5305 5305 5307 5309 5311 5313 5315 5318 5321 5325 5329
5366 5367 5359 5358 5356 5348 5342 5338 5336 5337 5338 5339 5328 5320 5314 5309 5306 5304 5302 5300 5297 5294 5291 5290 5289 5288 5287 5286 5287 5288 5289 5290 5291 5292 5292 5294 5295 5297 5299 5301 5303 5306 5309 5313
5359 5351 5354 5354 5352 5342 5334 5329 5328 5331 5334 5323 5318 5313 5306 5301 5296 5293 5290 5287 5284 5282 5280 5278 5276 5276 5274 5274 5275 5275 5277 5278 5279 5280 5280 5281 5282 5284 5285 5287 5290 5292 5295 5299
5342 5340 5347 5362 5340 5336 5331 5324 5317 5319 5316 5312 5308 5301 5294 5289 5285 5283 5280 5277 5274 5270 5268 5266 5265 5264 5263 5263 5263 5263 5264 5266 5267 5268 5269 5270 5271 5272 5273 5275 5276 5279 5283 5285
5330 5327 5336 5346 5333 5321 5322 5320 5312 5307 5306 5299 5293 5289 5287 5283 5277 5273 5270 5266 5262 5260 5257 5256 5254 5253 5252 5252 5252 5252 5253 5254 5255 5256 5257 5259 5260 5261 5262 5263 5265 5267 5270 5273
5319 5325 5332 5344 5323 5312 5313 5315 5310 5299 5296 5289 5285 5284 5283 5275 5268 5263 5259 5255 5252 5250 5247 5246 5244 5242 5241 5241 5241 5241 5243 5244 5245 5246 5247 5248 5248 5250 5251 5252 5254 5257 5259 5261
5315 5314 5323 5317 5306 5306 5312 5319 5303 5292 5287 5279 5273 5274 5270 5263 5258 5253 5249 5246 5243 5240 5237 5236 5234 5232 5231 5231 5231 5232 5233 5234 5235 5236 5237 5238 5238 5239 5240 5242 5243 5245 5247 5250
5304 5305 5319 5303 5297 5301 5304 5295 5288 5282 5277 5270 5265 5261 5257 5253 5248 5244 5240 5237 5233 5230 5228 5226 5224 5222 5222 5222 5223 5223 5223 5224 5225 5226 5226 5228 5228 5229 5230 5230 5231 5232 5235 5238
5305 5314 5306 5294 5294 5291 5287 5283 5278 5273 5268 5262 5257 5253 5249 5244 5240 5236 5232 5229 5225 5222 5220 5218 5216 5214 5213 5214 5214 5214 5213 5214 5215 5216 5217 5217 5217 5218 5219 5219 5219 5221 5223 5225
5291 5296 5292 5286 5283 5280 5276 5273 5270 5265 5260 5255 5249 5245 5240 5237 5233 5229 5226 5222 5219 5215 5212 5211 5209 5208 5207 5207 5206 5205 5205 5205 5206 5206 5207 5208 5208 5208 5208 5208 5208 5210 5211 5213
5287 5287 5282 5282 5279 5275 5270 5266 5261 5257 5252 5248 5243 5238 5233 5229 5226 5223 5221 5216 5213 5209 5207 5205 5203 5202 5201 5200 5199 5197 5197 5197 5197 5198 5197 5198 5198 5198 5198 5199 5198 5199 5201 5202
5296 5289 5280 5280 5276 5270 5264 5260 5255 5250 5246 5241 5236 5231 5227 5223 5220 5216 5213 5210 5207 5204 5202 5200 5198 5196 5195 5194 5192 5190 5190 5190 5189 5189 5188 5188 5188 5189 5190 5190 5191 5191 5193 5194
5284 5278 5273 5270 5265 5261 5257 5253 5248 5242 5238 5233 5229 5224 5220 5217 5214 5210 5207 5204 5201 5198 5196 5194 5192 5191 5190 5188 5186 5184 5182 5182 5181 5180 5179 5178 5178 5179 5180 5181 5181 5182 5183 5184
5270 5266 5263 5260 5256 5251 5247 5244 5238 5233 5229 5225 5221 5217 5213 5210 5207 5204 5202 5199 5196 5193 5191 5188 5187 5186 5184 5182 5180 5178 5176 5176 5175 5173 5171 5171 5170 5169 5169 5169 5170 5171 5172 5173
5262 5259 5256 5252 5246 5242 5238 5234 5229 5225 5221 5217 5214 5210 5207 5204 5201 5199 5196 5193 5191 5188 5185 5183 5181 5180 5179 5176 5174 5172 5171 5169 5168 5166 5165 5163 5162 5161 5160 5160 5160 5161 5161 5163
5253 5249 5246 5242 5239 5234 5230 5226 5222 5218 5214 5211 5207 5204 5201 5197 5195 5192 5189 5186 5183 5182 5180 5177 5176 5175 5173 5171 5168 5167 5165 5165 5164 5161 5159 5157 5156 5154 5153 5152 5152 5152 5152 5153
5245 5242 5238 5235 5232 5227 5223 5219 5215 5212 5207 5204 5200 5197 5194 5190 5188 5185 5183 5180 5177 5175 5174 5172 5171 5170 5167 5165 5163 5161 5160 5159 5158 5155 5152 5150 5149 5148 5147 5146 5145 5145 5144 5145
5244 5241 5236 5232 5227 5221 5217 5213 5209 5205 5201 5198 5194 5190 5186 5183 5180 5179 5176 5173 5171 5169 5169 5168 5166 5164 5162 5160 5158 5156 5154 5152 5150 5148 5146 5144 5143 5141 5140 5139 5138 5137 5137 5137
5237 5233 5229 5225 5220 5216 5211 5207 5203 5199 5195 5191 5187 5184 5180 5177 5174 5172 5169 5166 5164 5164 5164 5163 5162 5160 5157 5155 5153 5151 5148 5146 5144 5142 5140 5140 5138 5135 5134 5132 5131 5131 5130 5130
5229 5225 5221 5217 5213 5208 5204 5201 5196 5192 5188 5184 5181 5177 5174 5172 5169 5166 5163 5161 5160 5160 5159 5157 5155 5153 5151 5149 5148 5145 5142 5140 5138 5137 5135 5133 5131 5130 5128 5127 5126 5125 5125 5124
5221 5217 5214 5209 5205 5202 5198 5193 5189 5185 5182 5178 5174 5172 5169 5166 5163 5159 5157 5157 5158 5155 5153 5152 5150 5147 5145 5144 5142 5139 5137 5135 5133 5131 5129 5127 5125 5124 5122 5121 5120 5120 5120 5119
5213 5209 5205 5201 5197 5193 5190 5185 5181 5178 5175 5171 5168 5165 5162 5160 5157 5154 5153 5151 5151 5150 5148 5145 5143 5141 5140 5138 5136 5133 5130 5128 5126 5124 5122 5121 5119 5118 5117 5116 5115 5114 5114 5114
5205 5201 5197 5193 5189 5185 5181 5177 5174 5171 5168 5165 5162 5159 5156 5154 5151 5148 5148 5147 5144 5143 5142 5139 5137 5136 5135 5131 5128 5125 5123 5121 5119 5117 5116 5115 5113 5112 5111 5110 5109 5109 5108 5108
5196 5193 5189 5184 5180 5176 5173 5170 5167 5164 5161 5158 5155 5153 5150 5148 5146 5144 5141 5140 5139 5137 5135 5133 5132 5130 5128 5123 5120 5118 5116 5114 5113 5111 5110 5109 5108 5107 5106 5105 5104 5104 5104 5103
5187 5183 5179 5175 5172 5170 5166 5163 5159 5156 5153 5151 5149 5147 5144 5142 5139 5138 5135 5132 5131 5130 5127 5125 5124 5123 5119 5116 5113 5111 5109 5108 5107 5106 5105 5104 5102 5101 5101 5100 5099 5099 5099 5099
5179 5175 5172 5168 5165 5162 5158 5155 5152 5149 5147 5145 5143 5141 5138 5136 5133 5130 5128 5125 5123 5122 5119 5117 5115 5114 5112 5109 5107 5105 5104 5102 5101 5099 5098 5097 5097 5096 5095 5095 5094 5094 5094 5094
5170 5167 5163 5160 5157 5154 5151 5148 5145 5143 5141 5138 5136 5135 5132 5130 5127 5124 5121 5119 5116 5114 5112 5110 5108 5106 5104 5103 5101 5100 5098 5097 5095 5094 5093 5092 5092 5091 5091 5090 5090 5090 5090 5090